Tracking 18850 objects as of 22-Nov-2017
HD Live streaming from Space Station
objects crossing your sky now

OPS 7323 (DMSP 5B F3)

Track OPS 7323 (DMSP 5B F3) now!
10-day predictions
OPS 7323 (DMSP 5B F3) is classified as:


NORAD ID: 6275
Int'l Code: 1972-089A
Perigee: 780.6 km
Apogee: 832.2 km
Inclination: 98.5 °
Period: 100.9 minutes
Semi major axis: 7177 km
RCS: 1.5352 m2 (large)
Launch date: November 9, 1972
Source: United States (US)
Launch site: AIR FORCE WESTERN TEST RANGE (AFWTR)
aabbcc
Your satellite tracking list
Your tracking list is empty




NASA's NSSDC Master Catalog

Two Line Element Set (TLE):
1  6275U 72089A   17325.60168729 +.00000048 +00000-0 +36630-4 0  9997
2  6275 098.5442 174.6427 0035932 161.5681 198.6812 14.27748367337901
Source of the keplerian elements: AFSPC